Flag for Germany Weather past 2 weeks in Titisee-Neustadt, Baden-Württemberg, Germany

Now
39 °F

Fog.


Feels Like: 39 °F
Forecast: 37 / 54 °F
Wind: 1 mph from Northeast

Location: Freiburg

Current Time: Sep 23, 2014 at 7:22:40 AM

Latest Report: Sep 23, 2014 at 6:00 AM


Visibility: 3 mi

Pressure: 30.22 "Hg

Humidity: 100%

Dew point: 39 °F

Location of Titisee-NeustadtLocation

Historic Weather in Titisee-Neustadt — Graph

°F

Titisee-Neustadt temperature yesterday

Maximum temperature yesterday: 59 °F (at 3:00 PM)
Minimum temperature yesterday: 47 °F (at 10:00 PM)
Average temperature yesterday: 55 °F

Past Weeks' High & Low Weather Summary

 TemperatureHumidityPressure
High79 °F (Sep 8, 4:00 PM)100% (Sep 15, 7:00 AM)30.22 "Hg (Sep 15, 7:00 AM)
Low37 °F (Sep 23, 4:00 AM)53% (Sep 16, 4:00 PM)29.82 "Hg (Sep 17, 4:00 PM)
Average61 °F85%30.01 "Hg
* Reported Sep 8 6:00 AM — Sep 23 6:00 AM, Titisee-Neustadt, Weather by CustomWeather, © 2014

Note: Actual official high and low records may vary slightly from our data, if they occured in-between our weather recording intervals... More about our weather records

Advertising

Titisee-Neustadt weather history for previous 24 hours

 ConditionsComfort  
Time TempWeatherWind HumidityBarometerVisibility
6:00 AM
Sep 23
39 °FFog.1 mph100%30.22 "Hg3 mi
4:00 AM37 °FClear.1 mph98%30.22 "Hg1 mi
3:00 AM40 °FClear.1 mph99%30.22 "Hg3 mi
1:00 AM43 °FPassing clouds.1 mph97%30.21 "Hg5 mi
12:00 AM45 °FFog.2 mph97%30.21 "Hg4 mi
10:00 PM
Sep 22
47 °FPassing clouds.1 mph98%30.21 "Hg0 mi
9:00 PM51 °FOvercast.1 mph94%30.20 "Hg5 mi
7:00 PM56 °FScattered clouds.1 mph78%30.14 "Hg6 mi
6:00 PM59 °FPassing clouds.1 mph60%30.12 "Hg9 mi
4:00 PM59 °FOvercast.3 mph56%30.12 "Hg11 mi
3:00 PM59 °FPartly sunny.3 mph57%30.12 "Hg12 mi
1:00 PM57 °FOvercast.1 mph76%30.16 "Hg9 mi
12:00 PM57 °FOvercast.2 mph70%30.17 "Hg9 mi
11:00 AM55 °FOvercast.1 mph78%30.19 "Hg7 mi
10:00 AM54 °FPartly sunny.1 mph85%30.18 "Hg7 mi
9:00 AM53 °FSunny.1 mph85%30.16 "Hg7 mi
7:00 AM52 °FOvercast.1 mph94%30.17 "Hg5 mi
Weather by CustomWeather, © 2014

See weather overviewHow to use our weather pages